• In Deutschland
  • Länderverzeichnis
  • Für 7 Tage
  • Wassertemperatur
  • Satellitenkarten
  • Wetterkarte
  • Widgets
  • user-avatar
    Anmelden

    Stündliche Wetter Chien

    Heute, 17 Januar, Mittwoch

    Zeit Temperatur Niederschläge Wind Luftdruck Luftfeuchtigkeit
    00:00 +24°C° 0 mm 1 m/S 740 mmHg 95%
    01:00 +24°C° 0 mm 1 m/S 740 mmHg 96%
    02:00 +22°C° 0 mm 0 m/S 740 mmHg 98%
    03:00 +22°C° 0 mm 0 m/S 740 mmHg 98%
    04:00 +22°C° 0 mm 0 m/S 740 mmHg 98%
    05:00 +21°C° 0 mm 0 m/S 740 mmHg 98%
    06:00 +25°C° 0 mm 1 m/S 740 mmHg 92%
    07:00 +26°C° 0 mm 1 m/S 740 mmHg 85%
    08:00 +28°C° 0 mm 1 m/S 741 mmHg 79%
    09:00 +30°C° 0 mm 1 m/S 741 mmHg 66%
    10:00 +33°C° 0 mm 1 m/S 740 mmHg 54%
    11:00 +36°C° 0 mm 1 m/S 740 mmHg 42%
    12:00 +35°C° 0,4 mm 1 m/S 739 mmHg 44%
    13:00 +34°C° 0,4 mm 1 m/S 739 mmHg 47%
    14:00 +34°C° 0,4 mm 1 m/S 738 mmHg 50%
    15:00 +32°C° 0,6 mm 1 m/S 738 mmHg 55%
    16:00 +31°C° 0,6 mm 1 m/S 738 mmHg 60%
    17:00 +30°C° 0,6 mm 1 m/S 739 mmHg 66%
    18:00 +28°C° 0,7 mm 1 m/S 739 mmHg 74%
    19:00 +27°C° 0,7 mm 1 m/S 740 mmHg 83%
    20:00 +25°C° 0,7 mm 1 m/S 740 mmHg 91%
    21:00 +25°C° 0,1 mm 1 m/S 740 mmHg 93%
    22:00 +25°C° 0,1 mm 1 m/S 740 mmHg 94%
    23:00 +24°C° 0,1 mm 1 m/S 741 mmHg 96%

    Morgen, 18 Januar, Donnerstag

    Zeit Temperatur Niederschläge Wind Luftdruck Luftfeuchtigkeit
    00:00 +24°C° 0 mm 1 m/S 740 mmHg 96%
    01:00 +22°C° 0 mm 0 m/S 740 mmHg 97%
    02:00 +22°C° 0 mm 0 m/S 739 mmHg 97%
    03:00 +21°C° 0 mm 0 m/S 739 mmHg 98%
    04:00 +23°C° 0 mm 1 m/S 739 mmHg 98%
    05:00 +23°C° 0 mm 1 m/S 739 mmHg 98%
    06:00 +25°C° 0 mm 1 m/S 740 mmHg 93%
    07:00 +26°C° 0 mm 1 m/S 740 mmHg 87%
    08:00 +27°C° 0 mm 1 m/S 741 mmHg 82%
    09:00 +30°C° 0 mm 1 m/S 740 mmHg 70%
    10:00 +33°C° 0 mm 1 m/S 740 mmHg 57%
    11:00 +35°C° 0 mm 1 m/S 740 mmHg 45%
    12:00 +35°C° 1,1 mm 1 m/S 739 mmHg 48%
    13:00 +34°C° 1,1 mm 1 m/S 738 mmHg 50%
    14:00 +34°C° 1,1 mm 1 m/S 738 mmHg 53%
    15:00 +32°C° 0,4 mm 1 m/S 738 mmHg 58%
    16:00 +31°C° 0,4 mm 1 m/S 738 mmHg 62%
    17:00 +30°C° 0,4 mm 2 m/S 738 mmHg 67%
    18:00 +29°C° 0,1 mm 2 m/S 738 mmHg 72%
    19:00 +28°C° 0,1 mm 1 m/S 739 mmHg 78%
    20:00 +26°C° 0,1 mm 1 m/S 740 mmHg 83%
    21:00 +26°C° 0 mm 1 m/S 740 mmHg 86%
    22:00 +25°C° 0 mm 1 m/S 740 mmHg 89%
    23:00 +25°C° 0 mm 1 m/S 740 mmHg 92%

    übermorgen, 19 Januar, Freitag

    Zeit Temperatur Niederschläge Wind Luftdruck Luftfeuchtigkeit
    00:00 +25°C° 0 mm 1 m/S 740 mmHg 94%
    01:00 +24°C° 0 mm 1 m/S 739 mmHg 96%
    02:00 +24°C° 0 mm 1 m/S 739 mmHg 97%
    03:00 +22°C° 0,3 mm 0 m/S 739 mmHg 98%
    04:00 +22°C° 0,3 mm 0 m/S 739 mmHg 98%
    05:00 +22°C° 0,3 mm 0 m/S 739 mmHg 98%
    06:00 +25°C° 0 mm 1 m/S 740 mmHg 91%
    07:00 +27°C° 0 mm 1 m/S 740 mmHg 83%
    08:00 +28°C° 0 mm 1 m/S 741 mmHg 76%
    09:00 +31°C° 0,1 mm 1 m/S 740 mmHg 66%
    10:00 +33°C° 0,1 mm 1 m/S 740 mmHg 57%
    11:00 +35°C° 0,1 mm 1 m/S 740 mmHg 47%
    12:00 +35°C° 0,1 mm 1 m/S 739 mmHg 46%
    13:00 +35°C° 0,1 mm 1 m/S 738 mmHg 45%
    14:00 +35°C° 0,1 mm 1 m/S 737 mmHg 44%
    15:00 +34°C° 0,1 mm 1 m/S 737 mmHg 49%
    16:00 +33°C° 0,1 mm 1 m/S 737 mmHg 53%
    17:00 +32°C° 0,1 mm 1 m/S 737 mmHg 58%
    18:00 +30°C° 0 mm 2 m/S 738 mmHg 66%
    19:00 +28°C° 0 mm 2 m/S 739 mmHg 75%
    20:00 +27°C° 0 mm 2 m/S 739 mmHg 83%
    21:00 +26°C° 0 mm 1 m/S 740 mmHg 86%
    22:00 +25°C° 0 mm 1 m/S 740 mmHg 90%
    23:00 +25°C° 0 mm 1 m/S 740 mmHg 94%

    20 Januar, Samstag

    Zeit Temperatur Niederschläge Wind Luftdruck Luftfeuchtigkeit
    00:00 +25°C° 0,2 mm 1 m/S 739 mmHg 95%
    01:00 +24°C° 0,2 mm 1 m/S 739 mmHg 97%
    02:00 +24°C° 0,2 mm 1 m/S 739 mmHg 98%
    03:00 +22°C° 0 mm 0 m/S 739 mmHg 98%
    04:00 +22°C° 0 mm 0 m/S 739 mmHg 98%
    05:00 +22°C° 0 mm 0 m/S 739 mmHg 98%
    06:00 +23°C° 0,2 mm 0 m/S 740 mmHg 92%
    07:00 +26°C° 0,2 mm 1 m/S 740 mmHg 86%
    08:00 +28°C° 0,2 mm 1 m/S 741 mmHg 80%
    09:00 +29°C° 0,6 mm 1 m/S 740 mmHg 75%
    10:00 +30°C° 0,6 mm 1 m/S 740 mmHg 70%
    11:00 +32°C° 0,6 mm 1 m/S 740 mmHg 64%
    12:00 +32°C° 0,5 mm 1 m/S 739 mmHg 59%
    13:00 +33°C° 0,5 mm 1 m/S 738 mmHg 54%
    14:00 +34°C° 0,5 mm 1 m/S 738 mmHg 49%
    15:00 +32°C° 0,5 mm 1 m/S 738 mmHg 56%
    16:00 +31°C° 0,5 mm 1 m/S 738 mmHg 62%
    17:00 +29°C° 0,5 mm 1 m/S 738 mmHg 68%
    18:00 +28°C° 0,2 mm 1 m/S 739 mmHg 74%
    19:00 +27°C° 0,2 mm 1 m/S 739 mmHg 79%
    20:00 +26°C° 0,2 mm 1 m/S 740 mmHg 85%
    21:00 +25°C° 0 mm 1 m/S 740 mmHg 87%
    22:00 +25°C° 0 mm 1 m/S 740 mmHg 90%
    23:00 +24°C° 0 mm 1 m/S 740 mmHg 93%

    21 Januar, Sonntag

    Zeit Temperatur Niederschläge Wind Luftdruck Luftfeuchtigkeit
    00:00 +24°C° 0 mm 1 m/S 739 mmHg 94%
    01:00 +24°C° 0 mm 1 m/S 739 mmHg 96%
    02:00 +23°C° 0 mm 1 m/S 738 mmHg 97%
    03:00 +21°C° 0 mm 0 m/S 739 mmHg 97%
    04:00 +21°C° 0 mm 0 m/S 739 mmHg 98%
    05:00 +21°C° 0 mm 0 m/S 739 mmHg 98%
    06:00 +23°C° 0 mm 0 m/S 740 mmHg 92%
    07:00 +26°C° 0 mm 1 m/S 740 mmHg 85%
    08:00 +27°C° 0 mm 1 m/S 741 mmHg 79%
    09:00 +30°C° 0 mm 1 m/S 740 mmHg 69%
    10:00 +32°C° 0 mm 1 m/S 740 mmHg 60%
    11:00 +34°C° 0 mm 1 m/S 740 mmHg 50%
    12:00 +35°C° 0,1 mm 1 m/S 739 mmHg 47%
    13:00 +33°C° 0,1 mm 0 m/S 738 mmHg 43%
    14:00 +33°C° 0,1 mm 0 m/S 737 mmHg 40%
    15:00 +32°C° 0 mm 0 m/S 738 mmHg 43%
    16:00 +31°C° 0 mm 0 m/S 738 mmHg 47%
    17:00 +30°C° 0 mm 0 m/S 738 mmHg 50%
    18:00 +30°C° 0 mm 1 m/S 738 mmHg 58%
    19:00 +28°C° 0 mm 1 m/S 739 mmHg 65%
    20:00 +27°C° 0 mm 2 m/S 739 mmHg 73%
    21:00 +26°C° 0 mm 1 m/S 739 mmHg 78%
    22:00 +25°C° 0 mm 1 m/S 739 mmHg 84%
    23:00 +24°C° 0 mm 1 m/S 739 mmHg 89%

    22 Januar, Montag

    Zeit Temperatur Niederschläge Wind Luftdruck Luftfeuchtigkeit
    00:00 +24°C° 0 mm 1 m/S 739 mmHg 92%
    01:00 +24°C° 0 mm 1 m/S 739 mmHg 94%
    02:00 +21°C° 0 mm 0 m/S 738 mmHg 96%
    03:00 +21°C° 0 mm 0 m/S 739 mmHg 97%
    04:00 +21°C° 0 mm 0 m/S 739 mmHg 97%
    05:00 +23°C° 0 mm 1 m/S 739 mmHg 98%
    06:00 +24°C° 0 mm 1 m/S 739 mmHg 90%
    07:00 +26°C° 0 mm 1 m/S 740 mmHg 82%
    08:00 +28°C° 0 mm 1 m/S 740 mmHg 74%
    09:00 +31°C° 0 mm 1 m/S 740 mmHg 62%
    10:00 +34°C° 0 mm 1 m/S 739 mmHg 51%
    11:00 +35°C° 0 mm 0 m/S 739 mmHg 39%
    12:00 +37°C° 0 mm 1 m/S 738 mmHg 35%
    13:00 +37°C° 0 mm 1 m/S 737 mmHg 31%
    14:00 +37°C° 0 mm 1 m/S 737 mmHg 28%
    15:00 +36°C° 0 mm 1 m/S 737 mmHg 32%
    16:00 +34°C° 0 mm 1 m/S 737 mmHg 36%
    17:00 +33°C° 0 mm 1 m/S 737 mmHg 41%
    18:00 +31°C° 0 mm 1 m/S 738 mmHg 50%
    19:00 +29°C° 0 mm 1 m/S 738 mmHg 59%
    20:00 +27°C° 0 mm 2 m/S 739 mmHg 68%
    21:00 +27°C° 0,1 mm 1 m/S 739 mmHg 76%
    22:00 +26°C° 0,1 mm 1 m/S 739 mmHg 84%
    23:00 +25°C° 0,1 mm 1 m/S 739 mmHg 92%
    Mehr zeigen